When you browse on this site, cookies collect data to enhance your experience and personalize the content and advertising you see.
Visit our Privacy Policy to learn more. By continuing to use the site, you agree to this use of cookies and data.
  • In Spain
  • List of Countries
  • For 7 days
  • Water Temperature
  • Satellite Maps
  • Weather Map
  • Weather Widgets
  • user-avatar
    Login

    Hourly Weather Medina

    Today, 23 May, Thursday

    Time Temperature Precipitation Wind Pressure Humidity
    00:00 +33°C° 0 mm 1 mps 692 mmHg 17%
    01:00 +32°C° 0 mm 1 mps 691 mmHg 18%
    02:00 +30°C° 0 mm 0 mps 691 mmHg 19%
    03:00 +29°C° 0 mm 0 mps 691 mmHg 21%
    04:00 +31°C° 0 mm 1 mps 691 mmHg 20%
    05:00 +31°C° 0 mm 1 mps 691 mmHg 19%
    06:00 +31°C° 0 mm 2 mps 691 mmHg 18%
    07:00 +34°C° 0 mm 3 mps 692 mmHg 16%
    08:00 +35°C° 0 mm 5 mps 693 mmHg 13%
    09:00 +38°C° 0 mm 6 mps 693 mmHg 11%
    10:00 +39°C° 0 mm 6 mps 693 mmHg 10%
    11:00 +40°C° 0 mm 5 mps 693 mmHg 9%
    12:00 +41°C° 0 mm 5 mps 693 mmHg 8%
    13:00 +42°C° 0 mm 5 mps 692 mmHg 8%
    14:00 +42°C° 0 mm 5 mps 692 mmHg 7%
    15:00 +43°C° 0 mm 5 mps 691 mmHg 7%
    16:00 +42°C° 0 mm 5 mps 691 mmHg 6%
    17:00 +42°C° 0 mm 5 mps 691 mmHg 6%
    18:00 +42°C° 0 mm 5 mps 691 mmHg 6%
    19:00 +41°C° 0 mm 4 mps 691 mmHg 7%
    20:00 +39°C° 0 mm 3 mps 691 mmHg 8%
    21:00 +37°C° 0 mm 2 mps 691 mmHg 9%
    22:00 +36°C° 0 mm 2 mps 691 mmHg 11%
    23:00 +36°C° 0 mm 2 mps 691 mmHg 13%

    Tomorrow, 24 May, Friday

    Time Temperature Precipitation Wind Pressure Humidity
    00:00 +35°C° 0 mm 2 mps 691 mmHg 16%
    01:00 +33°C° 0 mm 1 mps 691 mmHg 18%
    02:00 +32°C° 0 mm 1 mps 691 mmHg 19%
    03:00 +31°C° 0 mm 1 mps 690 mmHg 21%
    04:00 +31°C° 0 mm 1 mps 690 mmHg 21%
    05:00 +30°C° 0 mm 1 mps 690 mmHg 21%
    06:00 +27°C° 0 mm 0 mps 690 mmHg 21%
    07:00 +32°C° 0 mm 1 mps 691 mmHg 18%
    08:00 +34°C° 0 mm 1 mps 692 mmHg 15%
    09:00 +36°C° 0 mm 1 mps 692 mmHg 11%
    10:00 +38°C° 0 mm 2 mps 692 mmHg 10%
    11:00 +40°C° 0 mm 3 mps 692 mmHg 9%
    12:00 +42°C° 0 mm 4 mps 692 mmHg 7%
    13:00 +42°C° 0 mm 4 mps 692 mmHg 7%
    14:00 +43°C° 0 mm 5 mps 691 mmHg 6%
    15:00 +43°C° 0 mm 5 mps 691 mmHg 6%
    16:00 +43°C° 0 mm 5 mps 691 mmHg 6%
    17:00 +43°C° 0 mm 4 mps 690 mmHg 6%
    18:00 +42°C° 0 mm 4 mps 690 mmHg 7%
    19:00 +40°C° 0 mm 3 mps 691 mmHg 9%
    20:00 +39°C° 0 mm 3 mps 691 mmHg 12%
    21:00 +38°C° 0 mm 3 mps 691 mmHg 14%
    22:00 +37°C° 0 mm 2 mps 691 mmHg 17%
    23:00 +36°C° 0 mm 2 mps 691 mmHg 21%

    Day after tomorrow, 25 May, Saturday

    Time Temperature Precipitation Wind Pressure Humidity
    00:00 +34°C° 0 mm 2 mps 691 mmHg 24%
    01:00 +34°C° 0 mm 2 mps 691 mmHg 26%
    02:00 +32°C° 0 mm 2 mps 690 mmHg 28%
    03:00 +31°C° 0 mm 2 mps 690 mmHg 31%
    04:00 +31°C° 0 mm 2 mps 690 mmHg 32%
    05:00 +30°C° 0 mm 1 mps 690 mmHg 33%
    06:00 +30°C° 0 mm 1 mps 690 mmHg 34%
    07:00 +31°C° 0 mm 1 mps 691 mmHg 29%
    08:00 +31°C° 0 mm 0 mps 692 mmHg 24%
    09:00 +33°C° 0 mm 0 mps 692 mmHg 19%
    10:00 +37°C° 0 mm 1 mps 692 mmHg 16%
    11:00 +39°C° 0 mm 2 mps 692 mmHg 13%
    12:00 +42°C° 0 mm 4 mps 692 mmHg 9%
    13:00 +42°C° 0 mm 3 mps 692 mmHg 9%
    14:00 +43°C° 0 mm 3 mps 691 mmHg 8%
    15:00 +43°C° 0 mm 3 mps 690 mmHg 7%
    16:00 +43°C° 0 mm 3 mps 690 mmHg 8%
    17:00 +42°C° 0 mm 3 mps 690 mmHg 8%
    18:00 +41°C° 0 mm 2 mps 690 mmHg 9%
    19:00 +40°C° 0 mm 3 mps 690 mmHg 13%
    20:00 +38°C° 0 mm 4 mps 690 mmHg 18%
    21:00 +36°C° 0 mm 5 mps 690 mmHg 23%
    22:00 +36°C° 0 mm 5 mps 690 mmHg 23%
    23:00 +36°C° 0 mm 4 mps 690 mmHg 23%

    26 May, Sunday

    Time Temperature Precipitation Wind Pressure Humidity
    00:00 +35°C° 0 mm 4 mps 691 mmHg 23%
    01:00 +34°C° 0 mm 3 mps 690 mmHg 27%
    02:00 +33°C° 0 mm 3 mps 690 mmHg 30%
    03:00 +31°C° 0 mm 2 mps 689 mmHg 33%
    04:00 +31°C° 0 mm 2 mps 689 mmHg 33%
    05:00 +31°C° 0 mm 2 mps 690 mmHg 34%
    06:00 +31°C° 0 mm 1 mps 690 mmHg 34%
    07:00 +34°C° 0 mm 3 mps 690 mmHg 26%
    08:00 +36°C° 0 mm 4 mps 691 mmHg 19%
    09:00 +40°C° 0 mm 6 mps 692 mmHg 11%
    10:00 +41°C° 0 mm 5 mps 691 mmHg 10%
    11:00 +42°C° 0 mm 5 mps 691 mmHg 8%
    12:00 +43°C° 0 mm 4 mps 691 mmHg 7%
    13:00 +44°C° 0 mm 4 mps 690 mmHg 6%
    14:00 +44°C° 0 mm 3 mps 690 mmHg 6%
    15:00 +44°C° 0 mm 3 mps 689 mmHg 6%
    16:00 +43°C° 0 mm 3 mps 689 mmHg 7%
    17:00 +43°C° 0 mm 3 mps 689 mmHg 9%
    18:00 +42°C° 0 mm 3 mps 689 mmHg 10%
    19:00 +41°C° 0 mm 4 mps 689 mmHg 16%
    20:00 +39°C° 0 mm 5 mps 689 mmHg 22%
    21:00 +36°C° 0 mm 6 mps 689 mmHg 28%
    22:00 +36°C° 0 mm 5 mps 689 mmHg 29%
    23:00 +35°C° 0 mm 4 mps 689 mmHg 30%

    27 May, Monday

    Time Temperature Precipitation Wind Pressure Humidity
    00:00 +34°C° 0 mm 3 mps 689 mmHg 30%
    01:00 +34°C° 0 mm 3 mps 689 mmHg 31%
    02:00 +33°C° 0 mm 3 mps 688 mmHg 32%
    03:00 +33°C° 0 mm 3 mps 688 mmHg 32%
    04:00 +31°C° 0 mm 2 mps 688 mmHg 33%
    05:00 +31°C° 0 mm 2 mps 689 mmHg 33%
    06:00 +30°C° 0 mm 1 mps 689 mmHg 33%
    07:00 +32°C° 0 mm 2 mps 689 mmHg 28%
    08:00 +35°C° 0 mm 2 mps 690 mmHg 23%
    09:00 +37°C° 0 mm 2 mps 691 mmHg 18%
    10:00 +38°C° 0 mm 2 mps 691 mmHg 15%
    11:00 +40°C° 0 mm 1 mps 691 mmHg 13%
    12:00 +41°C° 0 mm 1 mps 690 mmHg 10%
    13:00 +41°C° 0 mm 1 mps 690 mmHg 9%
    14:00 +42°C° 0 mm 1 mps 689 mmHg 8%
    15:00 +43°C° 0 mm 1 mps 689 mmHg 7%
    16:00 +43°C° 0 mm 1 mps 689 mmHg 7%
    17:00 +43°C° 0 mm 1 mps 689 mmHg 8%
    18:00 +42°C° 0 mm 2 mps 689 mmHg 8%
    19:00 +42°C° 0 mm 3 mps 689 mmHg 11%
    20:00 +40°C° 0 mm 3 mps 689 mmHg 14%
    21:00 +40°C° 0 mm 4 mps 690 mmHg 18%
    22:00 +38°C° 0 mm 4 mps 690 mmHg 21%
    23:00 +37°C° 0 mm 3 mps 689 mmHg 24%

    28 May, Tuesday

    Time Temperature Precipitation Wind Pressure Humidity
    00:00 +36°C° 0 mm 2 mps 689 mmHg 27%
    01:00 +36°C° 0 mm 2 mps 689 mmHg 28%
    02:00 +35°C° 0 mm 2 mps 689 mmHg 29%
    03:00 +34°C° 0 mm 2 mps 688 mmHg 29%
    04:00 +33°C° 0 mm 1 mps 689 mmHg 31%
    05:00 +32°C° 0 mm 1 mps 689 mmHg 32%
    06:00 +31°C° 0 mm 1 mps 689 mmHg 34%
    07:00 +33°C° 0 mm 1 mps 690 mmHg 27%
    08:00 +36°C° 0 mm 2 mps 690 mmHg 21%
    09:00 +38°C° 0 mm 2 mps 691 mmHg 14%
    10:00 +40°C° 0 mm 2 mps 691 mmHg 12%
    11:00 +41°C° 0 mm 1 mps 690 mmHg 10%
    12:00 +42°C° 0 mm 1 mps 690 mmHg 7%
    13:00 +43°C° 0 mm 1 mps 690 mmHg 7%
    14:00 +43°C° 0 mm 1 mps 690 mmHg 6%
    15:00 +44°C° 0 mm 1 mps 689 mmHg 6%
    16:00 +43°C° 0 mm 1 mps 689 mmHg 7%
    17:00 +43°C° 0 mm 2 mps 689 mmHg 7%
    18:00 +44°C° 0 mm 3 mps 689 mmHg 8%
    19:00 +43°C° 0 mm 4 mps 689 mmHg 12%
    20:00 +41°C° 0 mm 4 mps 689 mmHg 17%
    21:00 +40°C° 0 mm 4 mps 689 mmHg 21%
    22:00 +38°C° 0 mm 4 mps 689 mmHg 22%
    23:00 +37°C° 0 mm 3 mps 689 mmHg 24%
    Show more